Flag for India Weather past 2 weeks in Muktsar, Punjab, India

55 °F

Scattered clouds.

Feels Like: 55 °F
Forecast: 58 / 76 °F
Wind: No wind

Location: Lahore Airport

Current Time: Nov 26, 2015 at 9:44:56 AM

Latest Report: Nov 26, 2015 at 8:55 AM

Visibility: 2 mi

Pressure: 29.98 "Hg

Humidity: 77%

Dew point: 48 °F

Location of MuktsarLocation

Historic Weather in Muktsar — Graph


Muktsar temperature yesterday

Maximum temperature yesterday: 79 °F (at 2:25 PM)
Minimum temperature yesterday: 52 °F (at 6:55 AM)
Average temperature yesterday: 66 °F

Past Weeks' High & Low Weather Summary

High82 °F (Nov 15, 2:55 PM)94% (Nov 18, 8:00 AM)30.15 "Hg (Nov 18, 8:00 AM)
Low52 °F (Nov 18, 8:00 AM)23% (Nov 19, 3:25 PM)29.89 "Hg (Nov 14, 2:55 PM)
Average68 °F58%30.01 "Hg
* Reported Nov 11 7:55 AM — Nov 26 8:00 AM, Muktsar, Weather by CustomWeather, © 2015

Note: Actual official high and low records may vary slightly from our data, if they occured in-between our weather recording intervals... More about our weather records


Muktsar weather history for previous 24 hours

Time TempWeatherWind HumidityBarometerVisibility
8:00 AM
Thu, Nov 26
54 °FBroken clouds.5 mph82%29.95 "Hg2 mi
5:30 AM55 °FPassing clouds.3 mph77%29.92 "Hg2 mi
5:00 AM57 °FPassing clouds.No wind77%29.95 "Hg2 mi
4:30 AM57 °FPartly cloudy.No wind77%29.95 "Hg2 mi
4:00 AM59 °FPartly cloudy.No wind72%29.95 "Hg2 mi
3:30 AM59 °FPartly cloudy.No wind72%29.95 "Hg2 mi
3:00 AM59 °FPartly cloudy.No wind72%29.95 "Hg2 mi
2:30 AM63 °FPassing clouds.No wind68%29.98 "Hg2 mi
2:00 AM61 °FPartly cloudy.5 mph68%29.98 "Hg2 mi
1:30 AM63 °FPassing clouds.No wind68%29.98 "Hg2 mi
1:00 AM63 °FPassing clouds.No wind68%29.98 "Hg2 mi
12:30 AM63 °FPassing clouds.No wind68%29.98 "Hg2 mi
12:00 AM64 °FPassing clouds.No wind64%29.98 "Hg2 mi
11:30 PM
Wed, Nov 25
64 °FPassing clouds.No wind64%29.98 "Hg2 mi
11:00 PM66 °FPartly cloudy.3 mph60%29.98 "Hg2 mi
10:30 PM66 °FPartly cloudy.3 mph60%29.98 "Hg2 mi
10:00 PM68 °FPartly cloudy.3 mph56%29.98 "Hg2 mi
9:30 PM68 °FPassing clouds.No wind56%29.98 "Hg2 mi
9:00 PM72 °FPassing clouds.No wind50%29.98 "Hg2 mi
8:25 PM72 °FPassing clouds.No wind50%29.98 "Hg2 mi
7:55 PM73 °FPassing clouds.No wind41%29.98 "Hg3 mi
7:25 PM73 °FPassing clouds.No wind41%29.98 "Hg3 mi
6:55 PM75 °FPassing clouds.No wind36%29.98 "Hg3 mi
6:25 PM75 °FPassing clouds.3 mph36%29.95 "Hg3 mi
5:55 PM77 °FPassing clouds.6 mph32%29.95 "Hg3 mi
5:25 PM77 °FScattered clouds.3 mph32%29.95 "Hg4 mi
4:55 PM79 °FScattered clouds.5 mph28%29.95 "Hg4 mi
4:25 PM79 °FScattered clouds.6 mph28%29.98 "Hg4 mi
3:55 PM79 °FScattered clouds.7 mph24%29.98 "Hg5 mi
3:25 PM79 °FScattered clouds.9 mph24%29.98 "Hg5 mi
2:55 PM79 °FPassing clouds.10 mph28%29.98 "Hg5 mi
2:25 PM79 °FPassing clouds.9 mph28%29.98 "Hg5 mi
1:55 PM77 °FPassing clouds.9 mph32%29.98 "Hg5 mi
1:25 PM75 °FScattered clouds.7 mph34%30.01 "Hg4 mi
12:25 PM72 °FScattered clouds.10 mph41%30.04 "Hg3 mi
11:55 AM70 °FScattered clouds.12 mph43%30.04 "Hg3 mi
11:25 AM68 °FScattered clouds.7 mph46%30.04 "Hg2 mi
10:25 AM63 °FScattered clouds.6 mph59%30.07 "Hg1 mi
9:30 AM57 °FScattered clouds.3 mph63%30.04 "Hg1 mi
9:00 AM55 °FScattered clouds.5 mph67%30.04 "Hg1 mi
Weather by CustomWeather, © 2015

See weather overviewHow to use our weather pages